| time (UTC) | temp F | wind direction | speed MPH | gust MPH | rain 1hr in | rain 24hr in | rain mn in | humidity % | barometer mb |
| 20260507093507 | 0 | 0.0 | 0.0 | 0.00 | 0.00 | 0.00 | 1021.4 | ||
| 20260507093004 | 0 | 0.0 | 0.0 | 0.00 | 0.00 | 0.00 | 1021.5 | ||
| 20260507092504 | 0 | 0.0 | 0.0 | 0.00 | 0.00 | 0.00 | 1021.4 | ||
| 20260507092004 | 0 | 0.0 | 0.0 | 0.00 | 0.00 | 0.00 | 1021.4 | ||
| 20260507091502 | 0 | 0.0 | 0.0 | 0.00 | 0.00 | 0.00 | 1021.4 | ||
| 20260507091044 | 0 | 0.0 | 0.0 | 0.00 | 0.00 | 0.00 | 1021.4 | ||
| 20260507090543 | 0 | 0.0 | 0.0 | 0.00 | 0.00 | 0.00 | 1021.5 | ||
| 20260507090047 | 0 | 0.0 | 0.0 | 0.00 | 0.00 | 0.00 | 1021.5 | ||
| 20260507085542 | 0 | 0.0 | 0.0 | 0.00 | 0.00 | 0.00 | 1021.6 | ||
| 20260507085041 | 0 | 0.0 | 0.0 | 0.00 | 0.00 | 0.00 | 1021.6 | ||
| 20260507084545 | 0 | 0.0 | 0.0 | 0.00 | 0.00 | 0.00 | 1021.6 | ||
| 20260507084020 | 0 | 0.0 | 0.0 | 0.00 | 0.00 | 0.00 | 1021.6 | ||
| 20260507083519 | 0 | 0.0 | 0.0 | 0.00 | 0.00 | 0.00 | 1021.6 | ||
| 20260507083017 | 0 | 0.0 | 0.0 | 0.00 | 0.00 | 0.00 | 1021.6 | ||
| 20260507082516 | 0 | 0.0 | 0.0 | 0.00 | 0.00 | 0.00 | 1021.6 | ||
| 20260507082014 | 0 | 0.0 | 0.0 | 0.00 | 0.00 | 0.00 | 1021.7 | ||
| 20260507081517 | 0 | 0.0 | 0.0 | 0.00 | 0.00 | 0.00 | 1021.6 | ||
| 20260507081112 | 0 | 0.0 | 0.0 | 0.00 | 0.00 | 0.00 | 1021.6 | ||
| 20260507080554 | 0 | 0.0 | 0.0 | 0.00 | 0.00 | 0.00 | 1021.6 | ||
| 20260507080051 | 0 | 0.0 | 0.0 | 0.00 | 0.00 | 0.00 | 1021.7 | ||
| 20260507075550 | 0 | 0.0 | 0.0 | 0.00 | 0.00 | 0.00 | 1021.8 | ||
| 20260507075049 | 0 | 0.0 | 0.0 | 0.00 | 0.00 | 0.00 | 1021.7 | ||
| 20260507074549 | 0 | 0.0 | 0.0 | 0.00 | 0.00 | 0.00 | 1021.8 | ||
| 20260507074047 | 0 | 0.0 | 0.0 | 0.00 | 0.00 | 0.00 | 1021.7 | ||
| 20260507073532 | 0 | 0.0 | 0.0 | 0.00 | 0.00 | 0.00 | 1021.7 | ||
| 20260507073032 | 0 | 0.0 | 0.0 | 0.00 | 0.00 | 0.00 | 1021.7 | ||
| 20260507072533 | 0 | 0.0 | 0.0 | 0.00 | 0.00 | 0.00 | 1021.7 | ||
| 20260507072030 | 0 | 0.0 | 0.0 | 0.00 | 0.00 | 0.00 | 1021.7 | ||
| 20260507071531 | 0 | 0.0 | 0.0 | 0.00 | 0.00 | 0.00 | 1021.6 | ||
| 20260507071025 | 0 | 0.0 | 0.0 | 0.00 | 0.00 | 0.00 | 1021.7 | ||
| 20260507070527 | 0 | 0.0 | 0.0 | 0.00 | 0.00 | 0.00 | 1021.7 | ||
| 20260507070032 | 0 | 0.0 | 0.0 | 0.00 | 0.00 | 0.00 | 1021.6 | ||
| 20260507065625 | 0 | 0.0 | 0.0 | 0.00 | 0.00 | 0.00 | 1021.6 | ||
| 20260507065019 | 0 | 0.0 | 0.0 | 0.00 | 0.00 | 0.00 | 1021.6 | ||
| 20260507064527 | 0 | 0.0 | 0.0 | 0.00 | 0.00 | 0.00 | 1021.5 | ||
| 20260507064017 | 0 | 0.0 | 0.0 | 0.00 | 0.00 | 0.00 | 1021.5 | ||
| 20260507063515 | 0 | 0.0 | 0.0 | 0.00 | 0.00 | 0.00 | 1021.6 | ||
| 20260507063017 | 0 | 0.0 | 0.0 | 0.00 | 0.00 | 0.00 | 1021.5 | ||
| 20260507062512 | 0 | 0.0 | 0.0 | 0.00 | 0.00 | 0.00 | 1021.5 | ||
| 20260507061509 | 53 | 88 | 0.0 | 1.0 | 0.00 | 0.00 | 0.00 | 1 | 1021.5 |
| 20260507060511 | 55 | 293 | 0.0 | 2.0 | 0.00 | 0.00 | 0.00 | 1 | 1021.7 |
| 20260507060015 | 55 | 91 | 0.0 | 4.0 | 0.00 | 0.00 | 0.00 | 1 | 1021.7 |
| 20260507055506 | 55 | 235 | 0.0 | 1.0 | 0.00 | 0.00 | 0.00 | 1 | 1021.7 |
| 20260507055009 | 55 | 283 | 0.0 | 3.0 | 0.00 | 0.00 | 0.00 | 1 | 1021.7 |
| 20260507054505 | 55 | 89 | 0.0 | 3.0 | 0.00 | 0.00 | 0.00 | 1 | 1021.7 |
| 20260507054104 | 55 | 356 | 0.0 | 5.0 | 0.00 | 0.00 | 0.00 | 1 | 1021.7 |
| 20260507053552 | 55 | 228 | 0.0 | 5.0 | 0.00 | 0.00 | 0.00 | 1 | 1021.7 |
| 20260507053150 | 55 | 301 | 0.0 | 3.0 | 0.00 | 0.00 | 0.00 | 1 | 1021.7 |
| 20260507052553 | 54 | 91 | 0.0 | 2.0 | 0.00 | 0.00 | 0.00 | 1 | 1021.7 |
| 20260507052132 | 54 | 233 | 0.0 | 2.0 | 0.00 | 0.00 | 0.00 | 1 | 1021.7 |
| 20260507051546 | 54 | 349 | 0.0 | 1.0 | 0.00 | 0.00 | 0.00 | 1 | 1021.7 |
| 20260507051127 | 54 | 323 | 0.0 | 4.0 | 0.00 | 0.00 | 0.00 | 1 | 1021.7 |
| 20260507050514 | 54 | 342 | 0.0 | 1.0 | 0.00 | 0.00 | 0.00 | 1 | 1021.7 |
| 20260507050124 | 54 | 236 | 0.0 | 3.0 | 0.00 | 0.00 | 0.00 | 1 | 1021.7 |
| 20260507045512 | 54 | 238 | 0.0 | 3.0 | 0.00 | 0.00 | 0.00 | 1 | 1021.7 |
| 20260507045119 | 54 | 235 | 0.0 | 3.0 | 0.00 | 0.00 | 0.00 | 1 | 1021.8 |
| 20260507044508 | 54 | 85 | 0.0 | 2.0 | 0.00 | 0.00 | 0.00 | 1 | 1021.7 |
| 20260507044006 | 54 | 258 | 0.0 | 1.0 | 0.00 | 0.00 | 0.00 | 1 | 1021.7 |
| 20260507043548 | 54 | 259 | 0.0 | 2.0 | 0.00 | 0.00 | 0.00 | 1 | 1021.8 |
| 20260507043047 | 54 | 321 | 0.0 | 3.0 | 0.00 | 0.00 | 0.00 | 1 | 1021.7 |
| 20260507042545 | 54 | 289 | 0.0 | 3.0 | 0.00 | 0.00 | 0.00 | 1 | 1021.7 |
| 20260507042043 | 54 | 326 | 0.0 | 1.0 | 0.00 | 0.00 | 0.00 | 1 | 1021.7 |
| 20260507041546 | 54 | 249 | 0.0 | 2.0 | 0.00 | 0.00 | 0.00 | 1 | 1021.6 |
| 20260507041050 | 54 | 238 | 0.0 | 2.0 | 0.00 | 0.00 | 0.00 | 1 | 1021.6 |
| 20260507040511 | 54 | 217 | 0.0 | 3.0 | 0.00 | 0.00 | 0.00 | 1 | 1021.6 |
| 20260507040052 | 54 | 99 | 0.0 | 3.0 | 0.00 | 0.00 | 0.00 | 1 | 1021.5 |
| 20260507035505 | 54 | 236 | 0.0 | 1.0 | 0.00 | 0.00 | 0.00 | 1 | 1021.5 |
| 20260507035004 | 54 | 224 | 0.0 | 1.0 | 0.00 | 0.00 | 0.00 | 1 | 1021.5 |
| 20260507034503 | 54 | 257 | 0.0 | 1.0 | 0.00 | 0.00 | 0.00 | 1 | 1021.4 |
| 20260507034001 | 54 | 223 | 0.0 | 1.0 | 0.00 | 0.00 | 0.00 | 1 | 1021.4 |
| 20260507033600 | 54 | 76 | 0.0 | 1.0 | 0.00 | 0.00 | 0.00 | 1 | 1021.3 |
| 20260507033041 | 54 | 212 | 0.0 | 1.0 | 0.00 | 0.00 | 0.00 | 1 | 1021.3 |
| 20260507032540 | 54 | 212 | 0.0 | 2.0 | 0.00 | 0.00 | 0.00 | 1 | 1021.3 |
| 20260507032039 | 54 | 280 | 0.0 | 2.0 | 0.00 | 0.00 | 0.00 | 1 | 1021.3 |
| 20260507031538 | 54 | 152 | 0.0 | 1.0 | 0.00 | 0.00 | 0.00 | 1 | 1021.3 |
| 20260507031039 | 54 | 278 | 0.0 | 2.0 | 0.00 | 0.00 | 0.00 | 1 | 1021.3 |
| 20260507031015 | 54 | 212 | 0.0 | 2.0 | 0.00 | 0.00 | 0.00 | 1 | 1021.3 |
| 20260507030536 | 54 | 339 | 0.0 | 2.0 | 0.00 | 0.00 | 0.00 | 1 | 1021.3 |
| 20260507030017 | 54 | 251 | 0.0 | 1.0 | 0.00 | 0.00 | 0.00 | 1 | 1021.3 |
| 20260507025515 | 55 | 252 | 0.0 | 2.0 | 0.00 | 0.00 | 0.00 | 1 | 1021.3 |
| 20260507025014 | 55 | 240 | 0.0 | 2.0 | 0.00 | 0.00 | 0.00 | 1 | 1021.2 |
| 20260507024514 | 55 | 13 | 0.0 | 1.0 | 0.00 | 0.00 | 0.00 | 1 | 1021.1 |
| 20260507024011 | 55 | 226 | 0.0 | 1.0 | 0.00 | 0.00 | 0.00 | 1 | 1021.2 |
| 20260507023516 | 56 | 197 | 0.0 | 1.0 | 0.00 | 0.00 | 0.00 | 1 | 1021.1 |
| 20260507023053 | 56 | 269 | 0.0 | 1.0 | 0.00 | 0.00 | 0.00 | 1 | 1021.2 |
| 20260507022554 | 56 | 235 | 0.0 | 2.0 | 0.00 | 0.00 | 0.00 | 1 | 1021.2 |
| 20260507022050 | 56 | 246 | 0.0 | 1.0 | 0.00 | 0.00 | 0.00 | 1 | 1021.2 |
| 20260507021548 | 56 | 271 | 0.0 | 1.0 | 0.00 | 0.00 | 0.00 | 1 | 1021.2 |
| 20260507021047 | 56 | 227 | 0.0 | 3.0 | 0.00 | 0.00 | 0.00 | 1 | 1021.2 |
| 20260507020546 | 57 | 123 | 0.0 | 3.0 | 0.00 | 0.00 | 0.00 | 1 | 1021.2 |
| 20260507020026 | 57 | 239 | 0.0 | 1.0 | 0.00 | 0.00 | 0.00 | 1 | 1021.2 |
| 20260507015523 | 56 | 239 | 0.0 | 4.0 | 0.00 | 0.00 | 0.00 | 1 | 1021.2 |
| 20260507015022 | 57 | 118 | 0.0 | 4.0 | 0.00 | 0.00 | 0.00 | 1 | 1021.3 |
| 20260507014020 | 56 | 83 | 0.0 | 3.0 | 0.00 | 0.00 | 0.00 | 1 | 1021.3 |
| 20260507013519 | 56 | 233 | 0.0 | 1.0 | 0.00 | 0.00 | 0.00 | 1 | 1021.3 |
| 20260507013100 | 57 | 243 | 0.0 | 2.0 | 0.00 | 0.00 | 0.00 | 1 | 1021.3 |
| 20260507012559 | 57 | 265 | 0.0 | 2.0 | 0.00 | 0.00 | 0.00 | 1 | 1021.4 |
| 20260507012537 | 57 | 270 | 0.0 | 2.0 | 0.00 | 0.00 | 0.00 | 1 | 1021.3 |
| 20260507012057 | 57 | 277 | 0.0 | 2.0 | 0.00 | 0.00 | 0.00 | 1 | 1021.3 |
| 20260507011616 | 57 | 240 | 0.0 | 2.0 | 0.00 | 0.00 | 0.00 | 1 | 1021.3 |
| 20260507011053 | 58 | 250 | 0.0 | 1.0 | 0.00 | 0.00 | 0.00 | 1 | 1021.3 |
| 20260507010554 | 58 | 273 | 0.0 | 1.0 | 0.00 | 0.00 | 0.00 | 1 | 1021.2 |
| 20260507010032 | 58 | 249 | 0.0 | 1.0 | 0.00 | 0.00 | 0.00 | 1 | 1021.3 |
| 20260507005532 | 58 | 211 | 0.0 | 1.0 | 0.00 | 0.00 | 0.00 | 1 | 1021.3 |
| 20260507005029 | 58 | 280 | 0.0 | 1.0 | 0.00 | 0.00 | 0.00 | 1 | 1021.2 |
| 20260507004534 | 58 | 233 | 0.0 | 2.0 | 0.00 | 0.00 | 0.00 | 1 | 1021.3 |
| 20260507004127 | 58 | 239 | 0.0 | 2.0 | 0.00 | 0.00 | 0.00 | 1 | 1021.4 |
| 20260507003527 | 58 | 245 | 0.0 | 2.0 | 0.00 | 0.00 | 0.00 | 1 | 1021.3 |
| 20260507003009 | 57 | 232 | 0.0 | 2.0 | 0.00 | 0.00 | 0.00 | 1 | 1021.3 |
| 20260507002510 | 57 | 236 | 0.0 | 1.0 | 0.00 | 0.00 | 0.00 | 1 | 1021.3 |
| 20260507002010 | 57 | 245 | 0.0 | 2.0 | 0.00 | 0.00 | 0.00 | 1 | 1021.3 |
| 20260507001507 | 56 | 245 | 0.0 | 3.0 | 0.00 | 0.00 | 0.00 | 1 | 1021.2 |
| 20260507001006 | 56 | 238 | 0.0 | 2.0 | 0.00 | 0.00 | 0.00 | 1 | 1021.2 |
| 20260507000505 | 57 | 211 | 0.0 | 2.0 | 0.00 | 0.00 | 0.00 | 1 | 1021.2 |
| 20260507000049 | 57 | 198 | 0.0 | 1.0 | 0.00 | 0.00 | 0.00 | 1 | 1021.3 |
| 20260506235546 | 57 | 231 | 0.0 | 1.0 | 0.00 | 0.00 | 0.00 | 1 | 1021.4 |
| 20260506235048 | 57 | 96 | 0.0 | 1.0 | 0.00 | 0.00 | 0.00 | 1 | 1021.4 |
| 20260506234550 | 57 | 222 | 0.0 | 2.0 | 0.00 | 0.00 | 0.00 | 1 | 1021.4 |
| 20260506234041 | 57 | 222 | 0.0 | 2.0 | 0.00 | 0.00 | 0.00 | 1 | 1021.4 |
| 20260506233541 | 57 | 274 | 0.0 | 2.0 | 0.00 | 0.00 | 0.00 | 1 | 1021.4 |
| 20260506233022 | 57 | 291 | 0.0 | 2.0 | 0.00 | 0.00 | 0.00 | 1 | 1021.4 |
| 20260506232520 | 58 | 236 | 0.0 | 2.0 | 0.00 | 0.00 | 0.00 | 1 | 1021.4 |
| 20260506232019 | 58 | 285 | 0.0 | 2.0 | 0.00 | 0.00 | 0.00 | 1 | 1021.5 |
| 20260506231531 | 57 | 29 | 0.0 | 3.0 | 0.00 | 0.00 | 0.00 | 1 | 1021.5 |
| 20260506231017 | 57 | 205 | 0.0 | 3.0 | 0.00 | 0.00 | 0.00 | 1 | 1021.6 |
| 20260506230515 | 56 | 276 | 0.0 | 1.0 | 0.00 | 0.00 | 0.00 | 1 | 1021.6 |
| 20260506230058 | 56 | 131 | 0.0 | 1.0 | 0.00 | 0.00 | 0.00 | 1 | 1021.6 |
| 20260506225552 | 56 | 273 | 0.0 | 1.0 | 0.00 | 0.00 | 0.00 | 1 | 1021.7 |
| 20260506225051 | 56 | 271 | 0.0 | 1.0 | 0.00 | 0.00 | 0.00 | 1 | 1021.7 |
| 20260506224550 | 55 | 238 | 0.0 | 1.0 | 0.00 | 0.00 | 0.00 | 1 | 1021.8 |
| 20260506224048 | 55 | 232 | 0.0 | 3.0 | 0.00 | 0.00 | 0.00 | 1 | 1021.8 |
| 20260506223546 | 55 | 226 | 0.0 | 3.0 | 0.00 | 0.00 | 0.00 | 1 | 1021.8 |
| 20260506223042 | 55 | 233 | 0.0 | 3.0 | 0.00 | 0.00 | 0.00 | 1 | 1021.8 |
| 20260506222526 | 54 | 239 | 0.0 | 3.0 | 0.00 | 0.00 | 0.00 | 1 | 1021.9 |
| 20260506222026 | 54 | 215 | 0.0 | 2.0 | 0.00 | 0.00 | 0.00 | 1 | 1021.9 |
| 20260506221525 | 54 | 221 | 0.0 | 2.0 | 0.00 | 0.00 | 0.00 | 1 | 1021.9 |
| 20260506221025 | 54 | 225 | 0.0 | 2.0 | 0.00 | 0.00 | 0.00 | 1 | 1021.8 |
| 20260506220528 | 54 | 215 | 0.0 | 2.0 | 0.00 | 0.00 | 0.00 | 1 | 1021.9 |
| 20260506220005 | 54 | 222 | 0.0 | 2.0 | 0.00 | 0.00 | 0.00 | 1 | 1021.8 |
| 20260506215507 | 54 | 239 | 0.0 | 2.0 | 0.00 | 0.00 | 0.00 | 1 | 1021.8 |
| 20260506215003 | 54 | 240 | 0.0 | 3.0 | 0.00 | 0.00 | 0.00 | 1 | 1021.8 |
| 20260506214600 | 54 | 235 | 0.0 | 3.0 | 0.00 | 0.00 | 0.00 | 1 | 1021.8 |
| 20260506214059 | 54 | 228 | 0.0 | 3.0 | 0.00 | 0.00 | 0.00 | 1 | 1021.8 |
| 20260506213600 | 54 | 236 | 0.0 | 4.0 | 0.00 | 0.00 | 0.00 | 1 | 1021.8 |
| 20260506213127 | 54 | 226 | 0.0 | 3.0 | 0.00 | 0.00 | 0.00 | 1 | 1021.8 |
| 20260506212537 | 55 | 236 | 0.0 | 4.0 | 0.00 | 0.00 | 0.00 | 1 | 1021.7 |
| 20260506212038 | 55 | 233 | 0.0 | 3.0 | 0.00 | 0.00 | 0.00 | 1 | 1021.7 |
| 20260506211547 | 55 | 249 | 0.0 | 3.0 | 0.00 | 0.00 | 0.00 | 1 | 1021.8 |
| 20260506211034 | 55 | 246 | 0.0 | 4.0 | 0.00 | 0.00 | 0.00 | 1 | 1021.8 |
| 20260506210531 | 55 | 236 | 2.0 | 4.0 | 0.00 | 0.00 | 0.00 | 1 | 1021.8 |
| 20260506210034 | 55 | 241 | 0.0 | 3.0 | 0.00 | 0.00 | 0.00 | 1 | 1021.7 |
| 20260506205509 | 55 | 235 | 1.0 | 3.0 | 0.00 | 0.00 | 0.00 | 1 | 1021.7 |
| 20260506205008 | 55 | 212 | 0.0 | 3.0 | 0.00 | 0.00 | 0.00 | 1 | 1021.6 |
| 20260506204507 | 55 | 228 | 1.0 | 5.0 | 0.00 | 0.00 | 0.00 | 1 | 1021.7 |
| 20260506204004 | 56 | 197 | 1.0 | 4.0 | 0.00 | 0.00 | 0.00 | 1 | 1021.6 |
| 20260506203503 | 55 | 298 | 0.0 | 3.0 | 0.00 | 0.00 | 0.00 | 1 | 1021.6 |
| 20260506203003 | 56 | 252 | 0.0 | 3.0 | 0.00 | 0.00 | 0.00 | 1 | 1021.6 |
| 20260506202547 | 56 | 255 | 0.0 | 3.0 | 0.00 | 0.00 | 0.00 | 1 | 1021.6 |
| 20260506202045 | 56 | 235 | 0.0 | 4.0 | 0.00 | 0.00 | 0.00 | 1 | 1021.5 |
| 20260506201554 | 56 | 236 | 1.0 | 4.0 | 0.00 | 0.00 | 0.00 | 1 | 1021.5 |
| 20260506201041 | 56 | 225 | 0.0 | 4.0 | 0.00 | 0.00 | 0.00 | 1 | 1021.5 |
| 20260506200538 | 56 | 319 | 1.0 | 4.0 | 0.00 | 0.00 | 0.00 | 1 | 1021.5 |
| 20260506200036 | 55 | 243 | 0.0 | 3.0 | 0.00 | 0.00 | 0.00 | 1 | 1021.4 |
| 20260506195517 | 55 | 290 | 0.0 | 3.0 | 0.00 | 0.00 | 0.00 | 1 | 1021.5 |
| 20260506195016 | 55 | 232 | 2.0 | 3.0 | 0.00 | 0.00 | 0.00 | 1 | 1021.5 |
| 20260506194515 | 55 | 227 | 1.0 | 3.0 | 0.00 | 0.00 | 0.00 | 1 | 1021.4 |
| 20260506194012 | 55 | 243 | 0.0 | 3.0 | 0.00 | 0.00 | 0.00 | 1 | 1021.4 |
| 20260506193511 | 55 | 248 | 0.0 | 2.0 | 0.00 | 0.00 | 0.00 | 1 | 1021.4 |
| 20260506193010 | 55 | 231 | 0.0 | 2.0 | 0.00 | 0.00 | 0.00 | 1 | 1021.3 |
| 20260506192551 | 55 | 232 | 0.0 | 2.0 | 0.00 | 0.00 | 0.00 | 1 | 1021.3 |
| 20260506192054 | 55 | 271 | 0.0 | 2.0 | 0.00 | 0.00 | 0.00 | 1 | 1021.2 |
| 20260506191551 | 54 | 239 | 0.0 | 4.0 | 0.00 | 0.00 | 0.00 | 1 | 1021.2 |
| 20260506191047 | 54 | 235 | 0.0 | 4.0 | 0.00 | 0.00 | 0.00 | 1 | 1021.2 |
| 20260506190544 | 54 | 233 | 1.0 | 4.0 | 0.00 | 0.00 | 0.00 | 1 | 1021.2 |
| 20260506190044 | 54 | 245 | 0.0 | 2.0 | 0.00 | 0.00 | 0.00 | 1 | 1021.1 |
| 20260506185528 | 54 | 242 | 0.0 | 2.0 | 0.00 | 0.00 | 0.00 | 1 | 1021.1 |
| 20260506185024 | 54 | 273 | 0.0 | 2.0 | 0.00 | 0.00 | 0.00 | 1 | 1021.1 |
| 20260506184522 | 53 | 248 | 0.0 | 1.0 | 0.00 | 0.00 | 0.00 | 1 | 1021.0 |
| 20260506184021 | 53 | 218 | 0.0 | 1.0 | 0.00 | 0.00 | 0.00 | 1 | 1021.0 |
| 20260506183520 | 53 | 245 | 0.0 | 1.0 | 0.00 | 0.00 | 0.00 | 1 | 1021.1 |
| 20260506183028 | 53 | 263 | 0.0 | 1.0 | 0.00 | 0.00 | 0.00 | 1 | 1021.0 |
| 20260506182559 | 53 | 252 | 0.0 | 1.0 | 0.00 | 0.00 | 0.00 | 1 | 1021.0 |
| 20260506182059 | 53 | 248 | 0.0 | 2.0 | 0.00 | 0.00 | 0.00 | 1 | 1020.9 |
| 20260506181557 | 53 | 231 | 0.0 | 2.0 | 0.00 | 0.00 | 0.00 | 1 | 1020.8 |
| 20260506181056 | 53 | 225 | 0.0 | 1.0 | 0.00 | 0.00 | 0.00 | 1 | 1020.8 |
| 20260506180555 | 53 | 252 | 0.0 | 1.0 | 0.00 | 0.00 | 0.00 | 1 | 1020.8 |
| 20260506180055 | 53 | 239 | 0.0 | 1.0 | 0.00 | 0.00 | 0.00 | 1 | 1020.9 |
| 20260506175535 | 53 | 271 | 0.0 | 2.0 | 0.00 | 0.00 | 0.00 | 1 | 1020.9 |
| 20260506175031 | 53 | 132 | 0.0 | 2.0 | 0.00 | 0.00 | 0.00 | 1 | 1021.0 |
| 20260506174530 | 53 | 233 | 0.0 | 1.0 | 0.00 | 0.00 | 0.00 | 1 | 1020.9 |
| 20260506174029 | 53 | 232 | 0.0 | 2.0 | 0.00 | 0.00 | 0.00 | 1 | 1020.9 |
| 20260506173528 | 53 | 184 | 0.0 | 1.0 | 0.00 | 0.00 | 0.00 | 1 | 1020.9 |
| 20260506173026 | 53 | 245 | 0.0 | 2.0 | 0.00 | 0.00 | 0.00 | 1 | 1021.0 |
| 20260506172508 | 53 | 220 | 0.0 | 2.0 | 0.00 | 0.00 | 0.00 | 1 | 1020.9 |
| 20260506172006 | 53 | 237 | 0.0 | 3.0 | 0.00 | 0.00 | 0.00 | 1 | 1020.8 |
| 20260506171504 | 53 | 229 | 0.0 | 3.0 | 0.00 | 0.00 | 0.00 | 1 | 1020.9 |
| 20260506171006 | 53 | 233 | 0.0 | 1.0 | 0.00 | 0.00 | 0.00 | 1 | 1020.8 |
| 20260506170502 | 53 | 233 | 0.0 | 2.0 | 0.00 | 0.00 | 0.00 | 1 | 1020.7 |
| 20260506170115 | 53 | 233 | 0.0 | 2.0 | 0.00 | 0.00 | 0.00 | 1 | 1020.7 |
| 20260506165545 | 53 | 224 | 0.0 | 2.0 | 0.00 | 0.00 | 0.00 | 1 | 1020.6 |
| 20260506165044 | 53 | 283 | 0.0 | 2.0 | 0.00 | 0.00 | 0.00 | 1 | 1020.6 |
| 20260506164539 | 53 | 222 | 0.0 | 2.0 | 0.00 | 0.00 | 0.00 | 1 | 1020.5 |
| 20260506164037 | 53 | 233 | 0.0 | 2.0 | 0.00 | 0.00 | 0.00 | 1020.5 | |
| 20260506163537 | 0 | 0.0 | 0.0 | 0.00 | 0.00 | 0.00 | 1020.4 | ||
| 20260506163034 | 0 | 0.0 | 0.0 | 0.00 | 0.00 | 0.00 | 1020.4 | ||
| 20260506162516 | 0 | 0.0 | 0.0 | 0.00 | 0.00 | 0.00 | 1020.5 | ||
| 20260506162018 | 0 | 0.0 | 0.0 | 0.00 | 0.00 | 0.00 | 1020.5 | ||
| 20260506161514 | 0 | 0.0 | 0.0 | 0.00 | 0.00 | 0.00 | 1020.5 | ||
| 20260506161011 | 0 | 0.0 | 0.0 | 0.00 | 0.00 | 0.00 | 1020.4 | ||
| 20260506160510 | 0 | 0.0 | 0.0 | 0.00 | 0.00 | 0.00 | 1020.4 | ||
| 20260506160008 | 0 | 0.0 | 0.0 | 0.00 | 0.00 | 0.00 | 1020.3 | ||
| 20260506155607 | 0 | 0.0 | 0.0 | 0.00 | 0.00 | 0.00 | 1020.3 | ||
| 20260506155053 | 0 | 0.0 | 0.0 | 0.00 | 0.00 | 0.00 | 1020.3 | ||
| 20260506154549 | 0 | 0.0 | 0.0 | 0.00 | 0.00 | 0.00 | 1020.3 | ||
| 20260506154047 | 0 | 0.0 | 0.0 | 0.00 | 0.00 | 0.00 | 1020.3 | ||
| 20260506153546 | 0 | 0.0 | 0.0 | 0.00 | 0.00 | 0.00 | 1020.3 | ||
| 20260506153045 | 0 | 0.0 | 0.0 | 0.00 | 0.00 | 0.00 | 1020.2 | ||
| 20260506152544 | 0 | 0.0 | 0.0 | 0.00 | 0.00 | 0.00 | 1020.3 | ||
| 20260506152026 | 0 | 0.0 | 0.0 | 0.00 | 0.00 | 0.00 | 1020.3 | ||
| 20260506151520 | 0 | 0.0 | 0.0 | 0.00 | 0.00 | 0.00 | 1020.1 | ||
| 20260506151019 | 0 | 0.0 | 0.0 | 0.00 | 0.00 | 0.00 | 1020.0 | ||
| 20260506150518 | 0 | 0.0 | 0.0 | 0.00 | 0.00 | 0.00 | 1020.0 | ||
| 20260506150017 | 0 | 0.0 | 0.0 | 0.00 | 0.00 | 0.00 | 1020.0 | ||
| 20260506145515 | 0 | 0.0 | 0.0 | 0.00 | 0.00 | 0.00 | 1019.8 | ||
| 20260506145101 | 0 | 0.0 | 0.0 | 0.00 | 0.00 | 0.00 | 1019.9 | ||
| 20260506144606 | 0 | 0.0 | 0.0 | 0.00 | 0.00 | 0.00 | 1019.8 | ||
| 20260506144054 | 0 | 0.0 | 0.0 | 0.00 | 0.00 | 0.00 | 1019.6 | ||
| 20260506143553 | 0 | 0.0 | 0.0 | 0.00 | 0.00 | 0.00 | 1019.6 | ||
| 20260506143052 | 0 | 0.0 | 0.0 | 0.00 | 0.00 | 0.00 | 1019.6 | ||
| 20260506142550 | 0 | 0.0 | 0.0 | 0.00 | 0.00 | 0.00 | 1019.4 | ||
| 20260506142033 | 0 | 0.0 | 0.0 | 0.00 | 0.00 | 0.00 | 1019.5 | ||
| 20260506141530 | 0 | 0.0 | 0.0 | 0.00 | 0.00 | 0.00 | 1019.4 | ||
| 20260506141031 | 0 | 0.0 | 0.0 | 0.00 | 0.00 | 0.00 | 1019.4 | ||
| 20260506140530 | 0 | 0.0 | 0.0 | 0.00 | 0.00 | 0.00 | 1019.4 | ||
| 20260506140026 | 0 | 0.0 | 0.0 | 0.00 | 0.00 | 0.00 | 1019.4 | ||
| 20260506135523 | 0 | 0.0 | 0.0 | 0.00 | 0.00 | 0.00 | 1019.4 | ||
| 20260506135007 | 0 | 0.0 | 0.0 | 0.00 | 0.00 | 0.00 | 1019.4 | ||
| 20260506134505 | 0 | 0.0 | 0.0 | 0.00 | 0.00 | 0.00 | 1019.3 | ||
| 20260506134004 | 0 | 0.0 | 0.0 | 0.00 | 0.00 | 0.00 | 1019.3 | ||
| 20260506133503 | 0 | 0.0 | 0.0 | 0.00 | 0.00 | 0.00 | 1019.1 | ||
| 20260506133002 | 0 | 0.0 | 0.0 | 0.00 | 0.00 | 0.00 | 1019.0 | ||
| 20260506132600 | 0 | 0.0 | 0.0 | 0.00 | 0.00 | 0.00 | 1019.1 | ||
| 20260506132042 | 0 | 0.0 | 0.0 | 0.00 | 0.00 | 0.00 | 1019.1 | ||
| 20260506131538 | 0 | 0.0 | 0.0 | 0.00 | 0.00 | 0.00 | 1019.0 | ||
| 20260506131038 | 0 | 0.0 | 0.0 | 0.00 | 0.00 | 0.00 | 1018.9 | ||
| 20260506130535 | 0 | 0.0 | 0.0 | 0.00 | 0.00 | 0.00 | 1018.9 | ||
| 20260506130034 | 0 | 0.0 | 0.0 | 0.00 | 0.00 | 0.00 | 1018.8 | ||
| 20260506125532 | 0 | 0.0 | 0.0 | 0.00 | 0.00 | 0.00 | 1018.8 | ||
| 20260506125013 | 0 | 0.0 | 0.0 | 0.00 | 0.00 | 0.00 | 1018.8 | ||
| 20260506124511 | 0 | 0.0 | 0.0 | 0.00 | 0.00 | 0.00 | 1018.8 | ||
| 20260506124010 | 0 | 0.0 | 0.0 | 0.00 | 0.00 | 0.00 | 1018.9 | ||
| 20260506123510 | 0 | 0.0 | 0.0 | 0.00 | 0.00 | 0.00 | 1018.9 | ||
| 20260506123008 | 0 | 0.0 | 0.0 | 0.00 | 0.00 | 0.00 | 1018.9 | ||
| 20260506122506 | 0 | 0.0 | 0.0 | 0.00 | 0.00 | 0.00 | 1018.9 | ||
| 20260506122048 | 0 | 0.0 | 0.0 | 0.00 | 0.00 | 0.00 | 1018.8 | ||
| 20260506121549 | 0 | 0.0 | 0.0 | 0.00 | 0.00 | 0.00 | 1018.8 | ||
| 20260506121044 | 0 | 0.0 | 0.0 | 0.00 | 0.00 | 0.00 | 1018.7 | ||
| 20260506120543 | 0 | 0.0 | 0.0 | 0.00 | 0.00 | 0.00 | 1018.8 | ||
| 20260506120044 | 0 | 0.0 | 0.0 | 0.00 | 0.00 | 0.00 | 1018.9 | ||
| 20260506115540 | 0 | 0.0 | 0.0 | 0.00 | 0.00 | 0.00 | 1018.9 | ||
| 20260506115021 | 0 | 0.0 | 0.0 | 0.00 | 0.00 | 0.00 | 1018.7 | ||
| 20260506114520 | 0 | 0.0 | 0.0 | 0.00 | 0.00 | 0.00 | 1018.5 | ||
| 20260506114018 | 0 | 0.0 | 0.0 | 0.00 | 0.00 | 0.00 | 1018.6 | ||
| 20260506113517 | 0 | 0.0 | 0.0 | 0.00 | 0.00 | 0.00 | 1018.5 | ||
| 20260506113026 | 0 | 0.0 | 0.0 | 0.00 | 0.00 | 0.00 | 1018.5 | ||
| 20260506112514 | 0 | 0.0 | 0.0 | 0.00 | 0.00 | 0.00 | 1018.6 | ||
| 20260506112055 | 0 | 0.0 | 0.0 | 0.00 | 0.00 | 0.00 | 1018.6 | ||
| 20260506111553 | 0 | 0.0 | 0.0 | 0.00 | 0.00 | 0.00 | 1018.7 | ||
| 20260506111052 | 0 | 0.0 | 0.0 | 0.00 | 0.00 | 0.00 | 1018.6 | ||
| 20260506110553 | 0 | 0.0 | 0.0 | 0.00 | 0.00 | 0.00 | 1018.7 | ||
| 20260506110049 | 0 | 0.0 | 0.0 | 0.00 | 0.00 | 0.00 | 1018.6 | ||
| 20260506105548 | 0 | 0.0 | 0.0 | 0.00 | 0.00 | 0.00 | 1018.6 | ||
| 20260506105028 | 0 | 0.0 | 0.0 | 0.00 | 0.00 | 0.00 | 1018.6 | ||
| 20260506104527 | 0 | 0.0 | 0.0 | 0.00 | 0.00 | 0.00 | 1018.6 | ||
| 20260506104026 | 0 | 0.0 | 0.0 | 0.00 | 0.00 | 0.00 | 1018.5 | ||
| 20260506103524 | 0 | 0.0 | 0.0 | 0.00 | 0.00 | 0.00 | 1018.5 | ||
| 20260506103023 | 0 | 0.0 | 0.0 | 0.00 | 0.00 | 0.00 | 1018.4 | ||
| 20260506102522 | 0 | 0.0 | 0.0 | 0.00 | 0.00 | 0.00 | 1018.4 | ||
| 20260506102003 | 0 | 0.0 | 0.0 | 0.00 | 0.00 | 0.00 | 1018.3 | ||
| 20260506101502 | 0 | 0.0 | 0.0 | 0.00 | 0.00 | 0.00 | 1018.2 | ||
| 20260506101100 | 0 | 0.0 | 0.0 | 0.00 | 0.00 | 0.00 | 1018.2 | ||
| 20260506100559 | 0 | 0.0 | 0.0 | 0.00 | 0.00 | 0.00 | 1018.2 | ||
| 20260506100057 | 0 | 0.0 | 0.0 | 0.00 | 0.00 | 0.00 | 1018.2 | ||
| 20260506095556 | 0 | 0.0 | 0.0 | 0.00 | 0.00 | 0.00 | 1018.2 | ||
| 20260506095059 | 0 | 0.0 | 0.0 | 0.00 | 0.00 | 0.00 | 1018.2 | ||
| 20260506094536 | 0 | 0.0 | 0.0 | 0.00 | 0.00 | 0.00 | 1018.2 | ||
| 20260506094034 | 0 | 0.0 | 0.0 | 0.00 | 0.00 | 0.00 | 1018.3 |